START_TIME,STEP,MOV.,AL01,t_acc.,AL02,t_acc.,E37,t_acc.,H21,t_acc.
1979-03-06 15:00:31.910 ,1,1,5.,24.0,7.,24.0,0.,24.0,0.,24.0
1979-03-06 15:00:55.910 ,2,1,3.,24.0,1.,24.0,0.,24.0,0.,24.0
1979-03-06 15:01:19.910 ,6,1,6.,24.0,4.,24.0,0.,24.0,0.,24.0
1979-03-06 15:01:43.910 ,5,1,10.,24.0,1.,24.0,0.,24.0,0.,24.0
1979-03-06 15:02:07.910 ,1,1,19.,24.0,4.,24.0,0.,24.0,0.,24.0
1979-03-06 15:02:31.910 ,2,1,3.,24.0,5.,24.0,0.,24.0,0.,24.0
1979-03-06 15:02:55.910 ,6,1,15.,24.0,3.,24.0,0.,24.0,0.,24.0
1979-03-06 15:03:19.910 ,5,1,8.,24.0,1.,24.0,0.,24.0,0.,24.0
1979-03-06 15:03:43.910 ,2,1,,0,,0,,0,,0
1979-03-06 15:04:07.910 ,2,1,4.,24.0,1.,24.0,0.,24.0,0.,24.0
1979-03-06 15:04:31.910 ,6,1,11.,24.0,1.,24.0,0.,24.0,0.,24.0
1979-03-06 15:04:55.910 ,5,1,12.,24.0,4.,24.0,0.,24.0,0.,24.0
1979-03-06 15:05:19.910 ,1,1,13.,24.0,1.,24.0,0.,24.0,0.,24.0
1979-03-06 15:05:43.910 ,2,1,4.,24.0,2.,24.0,0.,24.0,0.,24.0
1979-03-06 15:06:07.910 ,6,1,12.,24.0,3.,24.0,0.,24.0,0.,24.0
1979-03-06 15:06:31.910 ,5,1,12.,24.0,0.,24.0,0.,24.0,0.,24.0
1979-03-06 15:06:55.910 ,1,1,9.,24.0,7.,24.0,0.,24.0,0.,24.0
1979-03-06 15:07:19.910 ,2,1,5.,24.0,1.,24.0,0.,24.0,0.,24.0
1979-03-06 15:07:43.910 ,6,1,18.,24.0,3.,24.0,0.,24.0,0.,24.0
1979-03-06 15:08:07.910 ,5,1,4.,24.0,2.,24.0,0.,24.0,0.,24.0
1979-03-06 15:08:31.910 ,1,1,15.,24.0,4.,24.0,0.,24.0,0.,24.0
1979-03-06 15:08:55.910 ,2,1,4.,24.0,1.,24.0,0.,24.0,0.,24.0
1979-03-06 15:09:19.910 ,6,1,13.,24.0,5.,24.0,0.,24.0,0.,24.0
1979-03-06 15:09:43.910 ,5,1,6.,24.0,2.,24.0,0.,24.0,0.,24.0
1979-03-06 15:10:07.910 ,1,1,15.,24.0,3.,24.0,0.,24.0,0.,24.0
1979-03-06 15:10:31.910 ,2,1,1.,24.0,3.,24.0,0.,24.0,0.,24.0
1979-03-06 15:10:55.910 ,6,1,19.,24.0,3.,24.0,0.,24.0,0.,24.0
1979-03-06 15:11:19.910 ,5,1,4.,24.0,0.,24.0,0.,24.0,0.,24.0
1979-03-06 15:11:43.910 ,1,1,17.,24.0,7.,24.0,0.,24.0,0.,24.0
1979-03-06 15:12:07.910 ,2,1,9.,24.0,10.,24.0,0.,24.0,0.,24.0
1979-03-06 15:12:31.910 ,6,1,24.,24.0,9.,24.0,0.,24.0,0.,24.0
1979-03-06 15:12:55.910 ,5,1,5.,24.0,1.,24.0,0.,24.0,0.,24.0
1979-03-06 15:13:19.910 ,1,1,14.,24.0,4.,24.0,0.,24.0,0.,24.0
1979-03-06 15:13:43.910 ,2,1,6.,24.0,5.,24.0,0.,24.0,0.,24.0
1979-03-06 15:14:07.910 ,6,1,21.,24.0,9.,24.0,0.,24.0,0.,24.0
1979-03-06 15:14:31.910 ,5,1,11.,24.0,6.,24.0,0.,24.0,0.,24.0
1979-03-06 15:14:55.910 ,1,1,19.,24.0,7.,24.0,0.,24.0,0.,24.0
1979-03-06 15:15:19.910 ,2,1,10.,24.0,5.,24.0,0.,24.0,0.,24.0
1979-03-06 15:15:43.910 ,6,1,21.,24.0,11.,24.0,0.,24.0,0.,24.0
1979-03-06 15:16:07.910 ,5,1,13.,24.0,1.,24.0,0.,24.0,0.,24.0
1979-03-06 15:16:31.910 ,1,1,16.,24.0,11.,24.0,0.,24.0,0.,24.0
1979-03-06 15:16:55.910 ,2,1,8.,24.0,0.,24.0,0.,24.0,0.,24.0
1979-03-06 15:17:19.910 ,6,1,19.,24.0,3.,24.0,0.,24.0,0.,24.0
1979-03-06 15:17:43.910 ,5,1,12.,24.0,1.,24.0,0.,24.0,0.,24.0
1979-03-06 15:18:07.910 ,1,1,22.,24.0,10.,24.0,0.,24.0,0.,24.0
1979-03-06 15:18:31.910 ,2,1,9.,24.0,2.,24.0,0.,24.0,0.,24.0
1979-03-06 15:18:55.910 ,6,1,30.,24.0,9.,24.0,0.,24.0,0.,24.0
1979-03-06 15:19:19.910 ,5,1,14.,24.0,0.,24.0,0.,24.0,0.,24.0
1979-03-06 15:19:43.910 ,1,1,32.,24.0,6.,24.0,0.,24.0,0.,24.0
1979-03-06 15:20:07.910 ,2,1,9.,24.0,1.,24.0,0.,24.0,0.,24.0
1979-03-06 15:20:31.910 ,6,1,21.,24.0,9.,24.0,1.,24.0,0.,24.0
1979-03-06 15:20:55.910 ,5,1,7.,24.0,5.,24.0,0.,24.0,0.,24.0
1979-03-06 15:21:19.910 ,1,1,23.,24.0,13.,24.0,0.,24.0,0.,24.0
1979-03-06 15:21:43.910 ,2,1,13.,24.0,2.,24.0,0.,24.0,0.,24.0
1979-03-06 15:22:07.910 ,6,1,22.,24.0,7.,24.0,0.,24.0,0.,24.0
1979-03-06 15:22:31.910 ,5,1,13.,24.0,2.,24.0,0.,24.0,0.,24.0
1979-03-06 15:22:55.910 ,1,1,25.,24.0,10.,24.0,0.,24.0,0.,24.0
1979-03-06 15:23:19.910 ,2,1,8.,24.0,3.,24.0,0.,24.0,0.,24.0
1979-03-06 15:23:43.910 ,6,1,29.,24.0,9.,24.0,0.,24.0,0.,24.0
1979-03-06 15:24:07.910 ,5,1,14.,24.0,9.,24.0,0.,24.0,0.,24.0
1979-03-06 15:24:31.910 ,1,1,27.,24.0,14.,24.0,0.,24.0,0.,24.0
1979-03-06 15:24:55.910 ,2,1,9.,24.0,3.,24.0,0.,24.0,0.,24.0
1979-03-06 15:25:19.910 ,6,1,30.,24.0,11.,24.0,0.,24.0,0.,24.0
1979-03-06 15:25:43.910 ,5,1,11.,24.0,8.,24.0,0.,24.0,0.,24.0
1979-03-06 15:26:07.910 ,1,1,30.,24.0,12.,24.0,0.,24.0,0.,24.0
1979-03-06 15:26:31.910 ,2,1,11.,24.0,0.,24.0,0.,24.0,0.,24.0
1979-03-06 15:26:55.910 ,6,1,27.,24.0,13.,24.0,0.,24.0,0.,24.0
1979-03-06 15:27:19.910 ,5,1,19.,24.0,4.,24.0,0.,24.0,0.,24.0
1979-03-06 15:27:43.910 ,1,1,27.,24.0,12.,24.0,0.,24.0,0.,24.0
1979-03-06 15:28:07.910 ,2,1,6.,24.0,2.,24.0,0.,24.0,0.,24.0
1979-03-06 15:28:31.910 ,6,1,28.,24.0,8.,24.0,0.,24.0,0.,24.0
1979-03-06 15:28:55.910 ,5,1,14.,24.0,2.,24.0,0.,24.0,0.,24.0
1979-03-06 15:29:19.910 ,1,1,24.,24.0,13.,24.0,0.,24.0,0.,24.0
1979-03-06 15:29:43.910 ,2,1,9.,24.0,0.,24.0,0.,24.0,0.,24.0
1979-03-06 15:30:07.910 ,6,1,16.,24.0,7.,24.0,0.,24.0,0.,24.0
1979-03-06 15:30:31.910 ,5,1,14.,24.0,7.,24.0,0.,24.0,0.,24.0
1979-03-06 15:30:55.910 ,1,1,22.,24.0,11.,24.0,0.,24.0,0.,24.0
1979-03-06 15:31:19.910 ,2,1,4.,24.0,1.,24.0,0.,24.0,0.,24.0
1979-03-06 15:31:43.910 ,6,1,20.,24.0,8.,24.0,0.,24.0,0.,24.0
1979-03-06 15:32:07.910 ,5,1,9.,24.0,0.,24.0,0.,24.0,0.,24.0
1979-03-06 15:32:31.910 ,1,1,21.,24.0,4.,24.0,0.,24.0,0.,24.0
1979-03-06 15:32:55.910 ,2,1,3.,24.0,0.,24.0,0.,24.0,0.,24.0
1979-03-06 15:33:19.910 ,6,1,20.,24.0,11.,24.0,0.,24.0,0.,24.0
1979-03-06 15:33:43.910 ,5,1,10.,24.0,2.,24.0,0.,24.0,0.,24.0
1979-03-06 15:34:07.910 ,1,1,9.,24.0,4.,24.0,0.,24.0,0.,24.0
1979-03-06 15:34:31.910 ,2,1,1.,24.0,1.,24.0,0.,24.0,0.,24.0
1979-03-06 15:34:55.910 ,6,1,13.,24.0,3.,24.0,0.,24.0,0.,24.0
1979-03-06 15:35:19.910 ,5,1,8.,24.0,3.,24.0,0.,24.0,0.,24.0
1979-03-06 15:35:43.910 ,1,1,14.,24.0,5.,24.0,0.,24.0,0.,24.0
1979-03-06 15:36:07.910 ,2,1,9.,24.0,0.,24.0,0.,24.0,0.,24.0
1979-03-06 15:36:31.910 ,0,0,28.,24.0,4.,24.0,0.,24.0,0.,24.0
1979-03-06 15:37:15.110 ,0,0,,0,,0,,0,,0
1979-03-06 15:37:19.910 ,1,1,23.,24.0,10.,24.0,0.,24.0,0.,24.0
1979-03-06 15:37:43.910 ,2,1,6.,24.0,2.,24.0,0.,24.0,0.,24.0
1979-03-06 15:38:07.910 ,6,1,11.,24.0,4.,24.0,0.,24.0,0.,24.0
1979-03-06 15:38:31.910 ,0,0,6.,24.0,2.,24.0,0.,24.0,0.,24.0
1979-03-06 15:38:55.910 ,1,1,24.,24.0,8.,24.0,0.,24.0,0.,24.0
1979-03-06 15:39:19.910 ,2,1,4.,24.0,1.,24.0,0.,24.0,0.,24.0
1979-03-06 15:39:43.910 ,6,1,17.,24.0,15.,24.0,0.,24.0,0.,24.0
1979-03-06 15:40:07.910 ,5,1,12.,24.0,1.,24.0,0.,24.0,0.,24.0
1979-03-06 15:40:31.910 ,1,1,25.,24.0,15.,24.0,0.,24.0,0.,24.0
1979-03-06 15:40:55.910 ,2,1,7.,24.0,5.,24.0,0.,24.0,0.,24.0
1979-03-06 15:41:19.910 ,6,1,26.,24.0,14.,24.0,0.,24.0,0.,24.0
1979-03-06 15:41:43.910 ,5,1,14.,24.0,2.,24.0,0.,24.0,0.,24.0
1979-03-06 15:42:07.910 ,1,1,30.,24.0,5.,24.0,0.,24.0,0.,24.0
1979-03-06 15:42:31.910 ,2,1,9.,24.0,8.,24.0,0.,24.0,0.,24.0
1979-03-06 15:42:55.910 ,6,1,26.,24.0,7.,24.0,0.,24.0,0.,24.0
1979-03-06 15:43:19.910 ,5,1,9.,24.0,4.,24.0,0.,24.0,0.,24.0
1979-03-06 15:43:43.910 ,1,1,23.,24.0,11.,24.0,0.,24.0,0.,24.0
1979-03-06 15:44:07.910 ,2,1,20.,24.0,4.,24.0,0.,24.0,0.,24.0
1979-03-06 15:44:31.910 ,6,1,40.,24.0,7.,24.0,0.,24.0,0.,24.0
1979-03-06 15:44:55.910 ,5,1,15.,24.0,2.,24.0,0.,24.0,0.,24.0
1979-03-06 15:45:19.910 ,1,1,27.,24.0,13.,24.0,0.,24.0,0.,24.0
1979-03-06 15:45:43.910 ,2,1,12.,24.0,7.,24.0,0.,24.0,0.,24.0
1979-03-06 15:46:07.910 ,6,1,28.,24.0,9.,24.0,0.,24.0,0.,24.0
1979-03-06 15:46:31.910 ,5,1,17.,24.0,3.,24.0,0.,24.0,0.,24.0
1979-03-06 15:46:55.910 ,1,1,33.,24.0,12.,24.0,0.,24.0,0.,24.0
1979-03-06 15:47:19.910 ,2,1,9.,24.0,2.,24.0,0.,24.0,0.,24.0
1979-03-06 15:47:43.910 ,6,1,24.,24.0,13.,24.0,0.,24.0,0.,24.0
1979-03-06 15:48:07.910 ,5,1,11.,24.0,3.,24.0,0.,24.0,0.,24.0
1979-03-06 15:48:31.910 ,0,0,27.,24.0,8.,24.0,0.,24.0,0.,24.0
1979-03-06 15:49:56.510 ,0,0,,0,,0,,0,,0
1979-03-06 15:50:07.910 ,1,1,47.,24.0,18.,24.0,0.,24.0,0.,24.0
1979-03-06 15:50:31.910 ,2,1,10.,24.0,9.,24.0,0.,24.0,0.,24.0
1979-03-06 15:50:55.910 ,6,1,42.,24.0,14.,24.0,0.,24.0,0.,24.0
1979-03-06 15:51:19.910 ,5,1,17.,24.0,2.,24.0,1.,24.0,0.,24.0
1979-03-06 15:51:43.910 ,1,1,48.,24.0,12.,24.0,0.,24.0,0.,24.0
1979-03-06 15:52:07.910 ,2,1,15.,24.0,6.,24.0,0.,24.0,0.,24.0
1979-03-06 15:52:31.910 ,6,1,46.,24.0,15.,24.0,0.,24.0,0.,24.0
1979-03-06 15:52:55.910 ,5,1,14.,24.0,7.,24.0,0.,24.0,0.,24.0
1979-03-06 15:53:19.910 ,1,1,42.,24.0,15.,24.0,0.,24.0,0.,24.0
1979-03-06 15:53:43.910 ,2,1,16.,24.0,14.,24.0,0.,24.0,0.,24.0
1979-03-06 15:54:07.910 ,6,1,64.,24.0,25.,24.0,0.,24.0,0.,24.0
1979-03-06 15:54:31.910 ,5,1,23.,24.0,10.,24.0,0.,24.0,0.,24.0
1979-03-06 15:54:55.910 ,1,1,48.,24.0,21.,24.0,0.,24.0,0.,24.0
1979-03-06 15:55:19.910 ,2,1,14.,24.0,10.,24.0,0.,24.0,0.,24.0
1979-03-06 15:55:43.910 ,6,1,38.,24.0,22.,24.0,0.,24.0,0.,24.0
1979-03-06 15:56:07.910 ,5,1,16.,24.0,7.,24.0,0.,24.0,0.,24.0
1979-03-06 15:56:31.910 ,1,1,52.,24.0,23.,24.0,0.,24.0,0.,24.0
1979-03-06 15:56:55.910 ,2,1,28.,24.0,7.,24.0,0.,24.0,0.,24.0
1979-03-06 15:57:19.910 ,6,1,58.,24.0,27.,24.0,0.,24.0,0.,24.0
1979-03-06 15:57:43.910 ,5,1,24.,24.0,8.,24.0,0.,24.0,0.,24.0
1979-03-06 15:58:07.910 ,1,1,66.,24.0,22.,24.0,0.,24.0,0.,24.0
1979-03-06 15:58:31.910 ,2,1,24.,24.0,13.,24.0,0.,24.0,0.,24.0
1979-03-06 15:58:55.910 ,6,1,70.,24.0,27.,24.0,0.,24.0,0.,24.0
1979-03-06 15:59:19.910 ,5,1,16.,24.0,11.,24.0,0.,24.0,0.,24.0
1979-03-06 15:59:43.910 ,1,1,78.,24.0,27.,24.0,0.,24.0,0.,24.0
1979-03-06 16:00:07.910 ,2,1,23.,24.0,20.,24.0,0.,24.0,0.,24.0
1979-03-06 16:00:31.910 ,6,1,64.,24.0,18.,24.0,0.,24.0,0.,24.0
1979-03-06 16:00:55.910 ,5,1,28.,24.0,6.,24.0,0.,24.0,0.,24.0
1979-03-06 16:01:19.910 ,1,1,80.,24.0,23.,24.0,0.,24.0,0.,24.0
1979-03-06 16:01:43.910 ,2,1,24.,24.0,8.,24.0,0.,24.0,0.,24.0
1979-03-06 16:02:07.910 ,6,1,68.,24.0,19.,24.0,1.,24.0,0.,24.0
1979-03-06 16:02:31.920 ,5,1,26.,24.0,11.,24.0,0.,24.0,0.,24.0
1979-03-06 16:02:55.920 ,1,1,78.,24.0,16.,24.0,0.,24.0,0.,24.0
1979-03-06 16:03:19.920 ,2,1,34.,24.0,6.,24.0,0.,24.0,0.,24.0
1979-03-06 16:03:43.920 ,6,1,74.,24.0,29.,24.0,0.,24.0,0.,24.0
1979-03-06 16:04:07.920 ,5,1,37.,24.0,15.,24.0,0.,24.0,0.,24.0
1979-03-06 16:04:31.920 ,1,1,80.,24.0,26.,24.0,0.,24.0,0.,24.0
1979-03-06 16:04:55.920 ,2,1,27.,24.0,14.,24.0,0.,24.0,0.,24.0
1979-03-06 16:05:19.920 ,6,1,86.,24.0,33.,24.0,0.,24.0,0.,24.0
1979-03-06 16:05:43.920 ,5,1,25.,24.0,4.,24.0,0.,24.0,0.,24.0
1979-03-06 16:06:07.910 ,1,1,78.,24.0,33.,24.0,0.,24.0,0.,24.0
1979-03-06 16:06:31.920 ,2,1,34.,24.0,13.,24.0,0.,24.0,0.,24.0
1979-03-06 16:06:55.920 ,6,1,74.,24.0,30.,24.0,0.,24.0,0.,24.0
1979-03-06 16:07:19.920 ,5,1,30.,24.0,9.,24.0,0.,24.0,0.,24.0
1979-03-06 16:07:43.920 ,1,1,82.,24.0,34.,24.0,0.,24.0,0.,24.0
1979-03-06 16:08:07.910 ,2,1,33.,24.0,18.,24.0,0.,24.0,0.,24.0
1979-03-06 16:08:31.920 ,6,1,68.,24.0,36.,24.0,0.,24.0,0.,24.0
1979-03-06 16:08:55.910 ,5,1,25.,24.0,16.,24.0,0.,24.0,0.,24.0
1979-03-06 16:09:19.910 ,1,1,82.,24.0,31.,24.0,0.,24.0,0.,24.0
1979-03-06 16:09:43.910 ,2,1,30.,24.0,16.,24.0,0.,24.0,0.,24.0
1979-03-06 16:10:07.910 ,6,1,70.,24.0,33.,24.0,0.,24.0,0.,24.0
1979-03-06 16:10:31.920 ,5,1,34.,24.0,12.,24.0,0.,24.0,0.,24.0
1979-03-06 16:10:55.920 ,1,1,82.,24.0,29.,24.0,0.,24.0,0.,24.0
1979-03-06 16:11:19.920 ,2,1,38.,24.0,15.,24.0,0.,24.0,0.,24.0
1979-03-06 16:11:43.920 ,6,1,100.,24.0,33.,24.0,1.,24.0,0.,24.0
1979-03-06 16:12:07.920 ,5,1,33.,24.0,8.,24.0,1.,24.0,0.,24.0
1979-03-06 16:12:31.920 ,1,1,82.,24.0,38.,24.0,0.,24.0,0.,24.0
1979-03-06 16:12:55.920 ,2,1,28.,24.0,26.,24.0,0.,24.0,0.,24.0
1979-03-06 16:13:19.920 ,6,1,82.,24.0,32.,24.0,1.,24.0,0.,24.0
1979-03-06 16:13:43.920 ,5,1,40.,24.0,9.,24.0,2.,24.0,0.,24.0
1979-03-06 16:14:07.920 ,0,0,98.,24.0,34.,24.0,0.,24.0,0.,24.0
1979-03-06 16:14:31.920 ,2,1,38.,24.0,21.,24.0,0.,24.0,0.,24.0
1979-03-06 16:14:55.920 ,6,1,98.,24.0,35.,24.0,1.,24.0,0.,24.0
1979-03-06 16:15:19.920 ,5,1,33.,24.0,10.,24.0,0.,24.0,0.,24.0
1979-03-06 16:15:43.920 ,1,1,110.,24.0,52.,24.0,0.,24.0,0.,24.0
1979-03-06 16:16:07.920 ,2,1,39.,24.0,21.,24.0,0.,24.0,0.,24.0
1979-03-06 16:16:31.920 ,6,1,110.,24.0,45.,24.0,0.,24.0,0.,24.0
1979-03-06 16:16:55.920 ,5,1,29.,24.0,15.,24.0,0.,24.0,0.,24.0
1979-03-06 16:17:19.920 ,1,1,116.,24.0,54.,24.0,1.,24.0,0.,24.0
1979-03-06 16:17:43.920 ,2,1,45.,24.0,28.,24.0,0.,24.0,0.,24.0
1979-03-06 16:18:07.920 ,6,1,112.,24.0,60.,24.0,2.,24.0,0.,24.0
1979-03-06 16:18:31.920 ,5,1,39.,24.0,17.,24.0,0.,24.0,0.,24.0
1979-03-06 16:18:55.920 ,1,1,140.,24.0,57.,24.0,0.,24.0,0.,24.0
1979-03-06 16:19:19.920 ,2,1,45.,24.0,34.,24.0,1.,24.0,0.,24.0
1979-03-06 16:19:43.920 ,6,1,132.,24.0,48.,24.0,0.,24.0,0.,24.0
1979-03-06 16:20:07.920 ,5,1,43.,24.0,12.,24.0,1.,24.0,0.,24.0
1979-03-06 16:20:31.920 ,1,1,132.,24.0,51.,24.0,0.,24.0,0.,24.0
1979-03-06 16:20:55.920 ,2,1,39.,24.0,37.,24.0,0.,24.0,0.,24.0
1979-03-06 16:21:19.920 ,6,1,132.,24.0,41.,24.0,0.,24.0,0.,24.0
1979-03-06 16:21:43.920 ,5,1,38.,24.0,17.,24.0,1.,24.0,0.,24.0
1979-03-06 16:22:07.920 ,1,1,128.,24.0,78.,24.0,2.,24.0,0.,24.0
1979-03-06 16:22:31.920 ,2,1,52.,24.0,36.,24.0,0.,24.0,0.,24.0
1979-03-06 16:22:55.920 ,6,1,136.,24.0,70.,24.0,1.,24.0,0.,24.0
1979-03-06 16:23:19.920 ,5,1,57.,24.0,19.,24.0,1.,24.0,0.,24.0
1979-03-06 16:23:43.920 ,1,1,144.,24.0,70.,24.0,0.,24.0,0.,24.0
1979-03-06 16:24:07.920 ,2,1,46.,24.0,34.,24.0,1.,24.0,0.,24.0
1979-03-06 16:24:31.920 ,6,1,136.,24.0,45.,24.0,1.,24.0,0.,24.0
1979-03-06 16:24:55.920 ,5,1,53.,24.0,22.,24.0,0.,24.0,0.,24.0
1979-03-06 16:25:19.920 ,1,1,144.,24.0,55.,24.0,1.,24.0,0.,24.0
1979-03-06 16:25:43.920 ,2,1,53.,24.0,27.,24.0,0.,24.0,0.,24.0
1979-03-06 16:26:07.920 ,6,1,132.,24.0,59.,24.0,3.,24.0,0.,24.0
1979-03-06 16:26:31.920 ,5,1,49.,24.0,17.,24.0,0.,24.0,0.,24.0
1979-03-06 16:26:55.920 ,1,1,132.,24.0,51.,24.0,1.,24.0,0.,24.0
1979-03-06 16:27:19.920 ,2,1,40.,24.0,32.,24.0,0.,24.0,0.,24.0
1979-03-06 16:27:43.920 ,6,1,136.,24.0,51.,24.0,1.,24.0,0.,24.0
1979-03-06 16:28:07.920 ,5,1,53.,24.0,24.,24.0,1.,24.0,0.,24.0
1979-03-06 16:28:31.920 ,1,1,144.,24.0,61.,24.0,0.,24.0,0.,24.0
1979-03-06 16:28:55.920 ,2,1,37.,24.0,27.,24.0,0.,24.0,0.,24.0
1979-03-06 16:29:19.920 ,6,1,136.,24.0,63.,24.0,1.,24.0,0.,24.0
1979-03-06 16:29:43.920 ,5,1,53.,24.0,24.,24.0,0.,24.0,0.,24.0
1979-03-06 16:30:07.920 ,1,1,128.,24.0,63.,24.0,2.,24.0,0.,24.0
1979-03-06 16:30:31.920 ,2,1,42.,24.0,28.,24.0,0.,24.0,0.,24.0
1979-03-06 16:30:55.920 ,6,1,128.,24.0,70.,24.0,1.,24.0,0.,24.0
1979-03-06 16:31:19.920 ,5,1,49.,24.0,27.,24.0,0.,24.0,0.,24.0
1979-03-06 16:31:43.920 ,1,1,136.,24.0,66.,24.0,0.,24.0,0.,24.0
1979-03-06 16:32:07.920 ,2,1,51.,24.0,22.,24.0,0.,24.0,0.,24.0
1979-03-06 16:32:31.920 ,6,1,144.,24.0,55.,24.0,0.,24.0,0.,24.0
1979-03-06 16:32:55.920 ,5,1,57.,24.0,33.,24.0,0.,24.0,0.,24.0
1979-03-06 16:33:19.920 ,1,1,128.,24.0,63.,24.0,1.,24.0,0.,24.0
1979-03-06 16:33:43.920 ,2,1,37.,24.0,45.,24.0,0.,24.0,0.,24.0
1979-03-06 16:34:07.920 ,6,1,140.,24.0,66.,24.0,0.,24.0,0.,24.0
1979-03-06 16:34:31.920 ,5,1,39.,24.0,32.,24.0,0.,24.0,0.,24.0
1979-03-06 16:34:55.920 ,1,1,152.,24.0,61.,24.0,1.,24.0,0.,24.0
1979-03-06 16:35:19.920 ,2,1,68.,24.0,38.,24.0,0.,24.0,0.,24.0
1979-03-06 16:35:43.920 ,6,1,164.,24.0,80.,24.0,0.,24.0,0.,24.0
1979-03-06 16:36:07.920 ,5,1,60.,24.0,29.,24.0,0.,24.0,0.,24.0
1979-03-06 16:36:31.920 ,1,1,136.,24.0,52.,24.0,0.,24.0,0.,24.0
1979-03-06 16:36:55.920 ,2,1,54.,24.0,39.,24.0,0.,24.0,0.,24.0
1979-03-06 16:37:19.920 ,6,1,144.,24.0,53.,24.0,1.,24.0,0.,24.0
1979-03-06 16:37:43.920 ,5,1,50.,24.0,20.,24.0,2.,24.0,0.,24.0
1979-03-06 16:38:07.920 ,1,1,128.,24.0,57.,24.0,1.,24.0,0.,24.0
1979-03-06 16:38:31.920 ,1,1,56.,24.0,40.,24.0,0.,24.0,0.,24.0
1979-03-06 16:38:55.920 ,2,1,86.,24.0,44.,24.0,1.,24.0,0.,24.0
1979-03-06 16:39:19.920 ,3,1,140.,24.0,57.,24.0,0.,24.0,0.,24.0
1979-03-06 16:39:43.920 ,4,1,144.,24.0,52.,24.0,0.,24.0,0.,24.0
1979-03-06 16:40:07.920 ,5,1,140.,24.0,40.,24.0,0.,24.0,0.,24.0
1979-03-06 16:40:31.920 ,6,1,104.,24.0,45.,24.0,0.,24.0,0.,24.0
1979-03-06 16:40:55.920 ,7,1,48.,24.0,35.,24.0,0.,24.0,0.,24.0
1979-03-06 16:41:19.920 ,7,1,11.,24.0,0.,24.0,0.,24.0,0.,24.0
1979-03-06 16:41:43.920 ,6,1,34.,24.0,13.,24.0,0.,24.0,0.,24.0
1979-03-06 16:42:07.920 ,5,1,90.,24.0,47.,24.0,0.,24.0,0.,24.0
1979-03-06 16:42:31.920 ,4,1,132.,24.0,51.,24.0,0.,24.0,0.,24.0
1979-03-06 16:42:55.920 ,3,1,156.,24.0,64.,24.0,0.,24.0,0.,24.0
1979-03-06 16:43:19.920 ,2,1,128.,24.0,37.,24.0,0.,24.0,0.,24.0
1979-03-06 16:43:43.920 ,1,1,96.,24.0,48.,24.0,0.,24.0,0.,24.0
1979-03-06 16:44:07.920 ,0,1,70.,24.0,39.,24.0,0.,24.0,0.,24.0
1979-03-06 16:44:31.920 ,0,1,37.,24.0,14.,24.0,0.,24.0,0.,24.0
1979-03-06 16:44:55.920 ,1,1,30.,24.0,40.,24.0,0.,24.0,0.,24.0
1979-03-06 16:45:19.920 ,2,1,66.,24.0,38.,24.0,0.,24.0,0.,24.0
1979-03-06 16:45:43.920 ,3,1,126.,24.0,51.,24.0,0.,24.0,0.,24.0
1979-03-06 16:46:07.920 ,4,1,140.,24.0,66.,24.0,2.,24.0,0.,24.0
1979-03-06 16:46:31.920 ,5,1,136.,24.0,48.,24.0,0.,24.0,0.,24.0
1979-03-06 16:46:55.920 ,6,1,108.,24.0,53.,24.0,0.,24.0,0.,24.0
1979-03-06 16:47:19.920 ,7,1,46.,24.0,33.,24.0,0.,24.0,0.,24.0
1979-03-06 16:47:43.920 ,7,1,8.,24.0,0.,24.0,0.,24.0,0.,24.0
1979-03-06 16:48:07.920 ,6,1,23.,24.0,10.,24.0,0.,24.0,0.,24.0
1979-03-06 16:48:31.920 ,5,1,82.,24.0,40.,24.0,1.,24.0,0.,24.0
1979-03-06 16:48:55.920 ,4,1,122.,24.0,64.,24.0,1.,24.0,0.,24.0
1979-03-06 16:49:19.920 ,3,1,148.,24.0,57.,24.0,1.,24.0,0.,24.0
1979-03-06 16:49:43.920 ,2,1,128.,24.0,56.,24.0,0.,24.0,0.,24.0
1979-03-06 16:50:07.920 ,1,1,82.,24.0,49.,24.0,0.,24.0,0.,24.0
1979-03-06 16:50:31.920 ,0,1,66.,24.0,30.,24.0,0.,24.0,0.,24.0
1979-03-06 16:50:55.920 ,0,1,13.,24.0,25.,24.0,0.,24.0,0.,24.0
1979-03-06 16:51:19.920 ,1,1,29.,24.0,15.,24.0,0.,24.0,0.,24.0
1979-03-06 16:51:43.920 ,2,1,84.,24.0,36.,24.0,0.,24.0,0.,24.0
1979-03-06 16:52:07.920 ,3,1,106.,24.0,56.,24.0,0.,24.0,0.,24.0
1979-03-06 16:52:31.920 ,4,1,132.,24.0,46.,24.0,0.,24.0,0.,24.0
1979-03-06 16:52:55.920 ,5,1,92.,24.0,39.,24.0,0.,24.0,0.,24.0
1979-03-06 16:53:19.920 ,6,1,64.,24.0,36.,24.0,0.,24.0,0.,24.0
1979-03-06 16:53:43.920 ,7,1,46.,24.0,21.,24.0,0.,24.0,0.,24.0
1979-03-06 16:54:07.920 ,7,1,8.,24.0,1.,24.0,0.,24.0,0.,24.0
1979-03-06 16:54:31.920 ,6,1,14.,24.0,5.,24.0,0.,24.0,0.,24.0
1979-03-06 16:54:55.920 ,5,1,72.,24.0,26.,24.0,0.,24.0,0.,24.0
1979-03-06 16:55:19.920 ,4,1,72.,24.0,36.,24.0,0.,24.0,0.,24.0
1979-03-06 16:55:43.920 ,3,1,90.,24.0,35.,24.0,0.,24.0,0.,24.0
1979-03-06 16:56:07.920 ,2,1,76.,24.0,24.,24.0,0.,24.0,0.,24.0
1979-03-06 16:56:31.920 ,1,1,57.,24.0,24.,24.0,0.,24.0,0.,24.0
1979-03-06 16:56:55.920 ,0,1,38.,24.0,22.,24.0,0.,24.0,0.,24.0
1979-03-06 16:57:19.920 ,0,1,15.,24.0,17.,24.0,0.,24.0,0.,24.0
1979-03-06 17:09:43.920 ,0,0,13.,24.0,12.,24.0,0.,24.0,0.,24.0
1979-03-06 17:10:07.920 ,0,1,5.,24.0,5.,24.0,0.,24.0,0.,24.0
1979-03-06 17:10:31.920 ,1,1,8.,24.0,6.,24.0,0.,24.0,0.,24.0
1979-03-06 17:10:55.920 ,2,1,10.,24.0,12.,24.0,0.,24.0,0.,24.0
1979-03-06 17:11:19.920 ,3,1,22.,24.0,5.,24.0,0.,24.0,0.,24.0
1979-03-06 17:11:43.920 ,4,1,26.,24.0,10.,24.0,0.,24.0,0.,24.0
1979-03-06 17:12:07.920 ,5,1,24.,24.0,13.,24.0,0.,24.0,0.,24.0
1979-03-06 17:12:31.920 ,6,1,19.,24.0,7.,24.0,1.,24.0,0.,24.0
1979-03-06 17:12:55.920 ,7,1,10.,24.0,10.,24.0,0.,24.0,0.,24.0
1979-03-06 17:13:19.920 ,7,1,4.,24.0,0.,24.0,0.,24.0,0.,24.0
1979-03-06 17:13:43.920 ,6,1,13.,24.0,6.,24.0,0.,24.0,0.,24.0
1979-03-06 17:14:07.920 ,5,1,10.,24.0,10.,24.0,0.,24.0,0.,24.0
1979-03-06 17:14:31.920 ,4,1,19.,24.0,9.,24.0,0.,24.0,0.,24.0
1979-03-06 17:14:55.920 ,3,1,32.,24.0,13.,24.0,0.,24.0,0.,24.0
1979-03-06 17:15:19.920 ,2,1,19.,24.0,10.,24.0,0.,24.0,0.,24.0
1979-03-06 17:15:43.920 ,1,1,14.,24.0,7.,24.0,0.,24.0,0.,24.0
1979-03-06 17:16:07.920 ,0,1,8.,24.0,12.,24.0,0.,24.0,0.,24.0
1979-03-06 17:16:31.920 ,0,1,2.,24.0,3.,24.0,0.,24.0,0.,24.0
1979-03-06 17:16:55.920 ,1,1,7.,24.0,6.,24.0,0.,24.0,0.,24.0
1979-03-06 17:17:19.920 ,2,1,7.,24.0,2.,24.0,0.,24.0,0.,24.0
1979-03-06 17:17:43.920 ,3,1,17.,24.0,5.,24.0,0.,24.0,0.,24.0
1979-03-06 17:18:07.920 ,4,1,16.,24.0,7.,24.0,0.,24.0,0.,24.0
1979-03-06 17:18:31.920 ,5,1,17.,24.0,4.,24.0,0.,24.0,0.,24.0
1979-03-06 17:18:55.920 ,6,1,9.,24.0,7.,24.0,0.,24.0,0.,24.0
1979-03-06 17:19:19.920 ,7,1,6.,24.0,4.,24.0,0.,24.0,0.,24.0
1979-03-06 17:19:43.920 ,7,1,9.,24.0,0.,24.0,0.,24.0,0.,24.0
1979-03-06 17:20:07.920 ,6,1,9.,24.0,1.,24.0,0.,24.0,0.,24.0
1979-03-06 17:20:31.920 ,5,1,8.,24.0,6.,24.0,0.,24.0,0.,24.0
1979-03-06 17:20:55.920 ,4,1,12.,24.0,7.,24.0,0.,24.0,0.,24.0
1979-03-06 17:21:19.920 ,3,1,13.,24.0,7.,24.0,0.,24.0,0.,24.0
1979-03-06 17:21:43.920 ,2,1,13.,24.0,6.,24.0,0.,24.0,0.,24.0
1979-03-06 17:22:07.920 ,1,1,7.,24.0,3.,24.0,0.,24.0,0.,24.0
1979-03-06 17:22:31.920 ,0,1,1.,24.0,1.,24.0,0.,24.0,0.,24.0
1979-03-06 17:22:55.920 ,0,1,3.,24.0,3.,24.0,0.,24.0,0.,24.0
1979-03-06 17:23:19.920 ,1,1,4.,24.0,4.,24.0,0.,24.0,0.,24.0
1979-03-06 17:23:43.920 ,2,1,6.,24.0,3.,24.0,0.,24.0,0.,24.0
1979-03-06 17:24:07.920 ,3,1,7.,24.0,1.,24.0,0.,24.0,0.,24.0
1979-03-06 17:24:31.920 ,4,1,8.,24.0,3.,24.0,0.,24.0,0.,24.0
1979-03-06 17:24:55.920 ,5,1,17.,24.0,4.,24.0,0.,24.0,0.,24.0
1979-03-06 17:25:19.920 ,6,1,12.,24.0,6.,24.0,0.,24.0,0.,24.0
1979-03-06 17:25:43.930 ,7,1,3.,24.0,1.,24.0,0.,24.0,0.,24.0
1979-03-06 17:26:07.930 ,7,1,10.,24.0,0.,24.0,0.,24.0,0.,24.0
1979-03-06 17:26:31.930 ,6,1,9.,24.0,0.,24.0,0.,24.0,0.,24.0
1979-03-06 17:26:55.930 ,5,1,5.,24.0,1.,24.0,0.,24.0,0.,24.0
1979-03-06 17:27:19.930 ,4,1,11.,24.0,1.,24.0,0.,24.0,0.,24.0
1979-03-06 17:27:43.930 ,3,1,13.,24.0,3.,24.0,0.,24.0,0.,24.0
1979-03-06 17:28:07.930 ,2,1,13.,24.0,2.,24.0,0.,24.0,0.,24.0
1979-03-06 17:28:31.930 ,1,1,5.,24.0,4.,24.0,0.,24.0,0.,24.0
1979-03-06 17:28:55.930 ,0,1,1.,24.0,1.,24.0,0.,24.0,0.,24.0
1979-03-06 17:29:19.930 ,0,1,5.,24.0,1.,24.0,0.,24.0,0.,24.0
1979-03-06 17:29:43.930 ,1,1,5.,24.0,5.,24.0,0.,24.0,0.,24.0
1979-03-06 17:30:07.930 ,2,1,3.,24.0,3.,24.0,0.,24.0,0.,24.0
1979-03-06 17:30:31.930 ,3,1,4.,24.0,3.,24.0,0.,24.0,0.,24.0
1979-03-06 17:30:55.930 ,4,1,4.,24.0,8.,24.0,0.,24.0,0.,24.0
1979-03-06 17:31:19.930 ,5,1,6.,24.0,2.,24.0,0.,24.0,0.,24.0
1979-03-06 17:31:43.930 ,6,1,6.,24.0,6.,24.0,0.,24.0,0.,24.0
1979-03-06 17:32:07.930 ,7,1,2.,24.0,2.,24.0,0.,24.0,0.,24.0
1979-03-06 17:32:31.930 ,7,1,10.,24.0,0.,24.0,0.,24.0,0.,24.0
1979-03-06 17:32:55.930 ,6,1,10.,24.0,1.,24.0,0.,24.0,0.,24.0
1979-03-06 17:33:19.930 ,5,1,4.,24.0,0.,24.0,0.,24.0,0.,24.0
1979-03-06 17:33:43.930 ,4,1,8.,24.0,1.,24.0,0.,24.0,0.,24.0
1979-03-06 17:34:07.930 ,3,1,4.,24.0,1.,24.0,0.,24.0,0.,24.0
1979-03-06 17:34:31.930 ,2,1,9.,24.0,1.,24.0,0.,24.0,0.,24.0
1979-03-06 17:34:55.930 ,1,1,4.,24.0,1.,24.0,0.,24.0,0.,24.0
1979-03-06 17:35:19.930 ,0,1,4.,24.0,1.,24.0,0.,24.0,0.,24.0
1979-03-06 17:35:43.930 ,0,1,2.,24.0,1.,24.0,0.,24.0,0.,24.0
1979-03-06 17:36:07.930 ,1,1,1.,24.0,3.,24.0,0.,24.0,0.,24.0
1979-03-06 17:36:31.930 ,2,1,4.,24.0,4.,24.0,0.,24.0,0.,24.0
1979-03-06 17:36:55.930 ,3,1,1.,24.0,2.,24.0,0.,24.0,0.,24.0
1979-03-06 17:37:19.930 ,4,1,7.,24.0,5.,24.0,0.,24.0,0.,24.0
1979-03-06 17:37:43.930 ,5,1,5.,24.0,1.,24.0,0.,24.0,0.,24.0
1979-03-06 17:38:07.930 ,6,1,2.,24.0,2.,24.0,0.,24.0,0.,24.0
1979-03-06 17:38:31.930 ,7,1,2.,24.0,4.,24.0,0.,24.0,0.,24.0
1979-03-06 17:38:55.930 ,7,1,9.,24.0,0.,24.0,0.,24.0,0.,24.0
1979-03-06 17:39:19.930 ,6,1,9.,24.0,0.,24.0,0.,24.0,0.,24.0
1979-03-06 17:39:43.930 ,5,1,7.,24.0,2.,24.0,0.,24.0,0.,24.0
1979-03-06 17:40:07.930 ,4,1,6.,24.0,4.,24.0,0.,24.0,0.,24.0
1979-03-06 17:40:31.930 ,3,1,5.,24.0,2.,24.0,0.,24.0,0.,24.0
1979-03-06 17:40:55.930 ,2,1,7.,24.0,4.,24.0,0.,24.0,0.,24.0
1979-03-06 17:41:19.930 ,1,1,7.,24.0,5.,24.0,0.,24.0,0.,24.0
1979-03-06 17:41:43.930 ,0,1,1.,24.0,0.,24.0,0.,24.0,0.,24.0
1979-03-06 17:42:07.930 ,0,1,0.,24.0,1.,24.0,0.,24.0,0.,24.0
1979-03-06 17:42:31.930 ,1,1,3.,24.0,1.,24.0,0.,24.0,0.,24.0
1979-03-06 17:42:55.930 ,2,1,3.,24.0,2.,24.0,0.,24.0,0.,24.0
1979-03-06 17:43:19.930 ,3,1,2.,24.0,1.,24.0,0.,24.0,0.,24.0
1979-03-06 17:43:43.930 ,4,1,2.,24.0,1.,24.0,0.,24.0,0.,24.0
1979-03-06 17:44:07.930 ,5,1,4.,24.0,0.,24.0,0.,24.0,0.,24.0